Location: Gollag?dem
(16.8053°N, 80.8024°E)
Time: 13:34:14
(UTC+00:00)

CZ-2C R/B - Pass Details

Date: 13 August 2020
Orbit: 639 x 705 km, 98.4° (Epoch: 24 September)

Event Time Altitude Azimuth Distance (km) Brightness Sun altitude
Rises 14:35:39 0° 11° (N) 2,979 7.2 -21.8°
Reaches altitude 10° 14:37:52 10° 11° (N) 2,058 6.4 -22.3°
Maximum altitude 14:42:21 86° 285° (WNW) 651 3.6 -23.2°
Enters shadow 14:44:25 32° 195° (SSW) 1,109 4.7 -23.7°
